Regional Weather Roundup
Issued by NWS Grand Forks, ND

Home | Current Version | Previous Version | Text Only | Print | Product List | Glossary Off
Versions: 1 2 3 4 5 6 7 8 9 10 11 12 13 14 15 16 17 18 19 20 21 22 23 24 25 26 27 28 29 30 31 32 33 34 35 36 37 38 39 40 41 42 43 44 45 46 47 48 49 50

000
ASUS43 KFGF 231910
RWRFGF
PRAIRIE TO PINES  WEATHER ROUNDUP
NATIONAL WEATHER SERVICE EASTERN NORTH DAKOTA/GRAND FORKS ND
200 PM CDT WED JUL 23 2014

 **SATELLITE DATA USED TO AUGMENT SKY COVER AT AUTOMATED STATIONS**
 *****  WEATHER ACROSS EASTERN NORTH DAKOTA  *****

CITY           SKY/WX    TMP DP  RH WIND       PRES   REMARKS
GRAND FORKS    MOSUNNY   73  58  59 VRB7      30.28F
GRAND FRKS AFB SUNNY     72  59  64 N5        30.30S
GRAND FRKS NWS   N/A     75 N/A N/A NE3         N/A
DEVILS LAKE    PTSUNNY   70  54  56 SE9       30.28F
FARGO          MOSUNNY   77  59  53 N7        30.27S
WAHPETON ARPT  PTCLDY    79  50  36 N8        30.27S
$$

 ***** WEATHER ACROSS CENTRAL AND WESTERN NORTH DAKOTA  *****

CITY           SKY/WX    TMP DP  RH WIND       PRES   REMARKS
BISMARCK       MOSUNNY   80  62  54 SE15G25   30.24F
MINOT          CLOUDY    72  64  76 E14       30.25S
JAMESTOWN      SUNNY     76  57  51 SE9       30.28F
MINOT AFB      PTSUNNY   72  66  83 E14       30.24F
GARRISON         N/A     78  66  66 S14       30.23F
WILLISTON      MOSUNNY   87  61  41 SE16G25   30.16F
DICKINSON      MOSUNNY   79  65  62 SE16      30.18F
HETTINGER      SUNNY     82  62  50 SE15G26   30.20F
$$

 *****  OTHER AIRPORT OBSERVATIONS IN OUR AREA  *****

CITY           SKY/WX    TMP DP  RH WIND       PRES   REMARKS
WALHALLA       MOCLDY    70  54  56 E8          N/A
GRAFTON AIRPOR FAIR      70  55  60 NW7       30.29F
VALLEY CITY AR FAIR      75  57  53 N3        30.29S
CANDO          FAIR      72  54  53 SE7       30.31S
CAVALIER APRT  FAIR      70  54  56 NW7       30.30F
GWINNER        CLEAR     77  55  47 S8        30.29F
SHEYENNE NWR     N/A     80  61  52 SW2       29.95
ROLLA            N/A     68  55  64 SE8       30.32F
 ***** THE ABOVE OBSERVATIONS ARE NON NWS ARE NOT QUALITY
       CONTROLLED AND MAY MIS-REPORT RAIN FOR SNOW...
$$

  *****  WEATHER ACROSS NORTHERN MINNESOTA  *****

CITY           SKY/WX    TMP DP  RH WIND       PRES   REMARKS
FLAG ISLAND    SUNNY     70  46  43 N6        30.27F
WARROAD        NOT AVBL
ROSEAU         MOSUNNY   72  59  64 E8        30.28S
HALLOCK        SUNNY     72  48  43 N6        30.29S
THF RVR FALLS  SUNNY     72  55  56 CALM      30.28S
BAUDETTE       MOSUNNY   72  52  49 N5        30.28F
WASKISH        SUNNY     73  57  56 W5        30.26F
CROOKSTON      SUNNY     72  59  64 N8        30.29S
$$
  *****  WEATHER ACROSS CENTRAL AND WEST MINNESOTA  *****

CITY           SKY/WX    TMP DP  RH WIND       PRES   REMARKS
FOSSTON        SUNNY     72  57  60 NW5       30.29S
BEMIDJI        PTSUNNY   72  54  52 N5        30.27S
PARK RAPIDS    MOSUNNY   75  52  44 N9        30.26F
ELBOW LAKE     FAIR      75  57  53 N7        30.27F
WADENA         MOSUNNY   73  57  56 N7        30.27S
DETROIT LAKES  SUNNY     73  54  49 N6        30.29S
MOORHEAD       SUNNY     75  61  60 NE6       30.28S
FERGUS FALLS   SUNNY     77  52  41 N6        30.26F
MORRIS MN      SUNNY     79  55  44 N5        30.26S
STAPLES        MOSUNNY   75  52  43 N7        30.27S
$$
  *****  WEATHER ELSEWHERE ACROSS MINNESOTA  *****

CITY           SKY/WX    TMP DP  RH WIND       PRES   REMARKS
DULUTH         MOSUNNY   74  53  48 NE8       30.24F
INTRNTL FALLS  PTSUNNY   69  50  50 E5        30.27S
ELY            PTSUNNY   70  50  49 NE6       30.25F
CLOQUET        MOSUNNY   73  50  43 NW8G17    30.25S
WHEATON        MOSUNNY   75  54  46 CALM      30.27F
BRAINERD       MOSUNNY   75  49  39 N10G17    30.26F
HIBBING        PTSUNNY   71  52  50 N10       30.26S
ALEXANDRIA     MOSUNNY   76  52  43 N10       30.29S
SAINT CLOUD    MOSUNNY   77  50  38 N10       30.25F
MINNEAPOLIS    MOSUNNY   82  50  32 NW9       30.23S
$$

  *****  WEATHER ACROSS SOUTH DAKOTA  *****

CITY           SKY/WX    TMP DP  RH WIND       PRES   REMARKS
SIOUX FALLS    MOSUNNY   78  53  41 VRB6      30.27S
BROOKINGS      NOT AVBL
WATERTOWN      SUNNY     77  53  43 SE9       30.28S
HURON          SUNNY     81  54  39 E7        30.25F
SISSETON         N/A     77  57  50 S5        30.26F
ABERDEEN       MOSUNNY   79  55  43 VRB7      30.26F
MITCHELL       SUNNY     81  56  42 E8        30.25F
PIERRE         SUNNY     84  54  35 SE18G25   30.20F
MOBRIDGE       SUNNY     80  60  50 SE16      30.21F
RAPID CITY     SUNNY     79  63  57 SE16      30.21F
$$

  *****  SOME WEATHER IN NEARBY STATES *****

CITY           SKY/WX    TMP DP  RH WIND       PRES   REMARKS
GLASGOW MT     MOSUNNY   86  59  39 E18       30.07F
GREAT FALLS MT SUNNY     85  52  32 VRB6      30.05F
CHEYENNE WY    SUNNY     78  61  55 S13G26    30.38F
SCOTTSBLUFF NE MOSUNNY   86  64  47 S17G26    30.24F
OMAHA NE       MOSUNNY   84  58  40 N12       30.21F
DES MOINES IA  PTSUNNY   82  60  47 NE6       30.20F
DAVENPORT IA   SUNNY     78  56  46 NE9G20    30.19R
CHICAGO IL     MOSUNNY   74  44  34 N21G31    30.15F
EAU CLAIRE WI  MOSUNNY   80  54  40 VRB5      30.20F
LA CROSSE WI   PTSUNNY   79  55  43 NW8       30.20F
$$

  *****  SOME NATIONAL WEATHER *****

CITY           SKY/WX    TMP DP  RH WIND       PRES   REMARKS
LA GUARDIA NY  MOSUNNY   88  71  57 S17       29.85F HX  94
RALEIGH NC     MOSUNNY   91  70  49 SW8       29.99F HX  96
ATLANTA GA     MOSUNNY   86  68  54 CALM      30.05F
NEW ORLEANS LA PTSUNNY   82  73  74 SE10      30.05F
OKLAHOMA CITY  PTSUNNY   97  72  44 VRB5      30.12F HX 105
ALBUQUERQUE NM PTSUNNY   83  51  33 S12G23    30.36F
SALT LAKE CITY MOSUNNY   99  32   9 SE22G28   30.08F HX  93
LOS ANGELES CA MOSUNNY   78  58  49 W12       30.00S
BOISE ID       SUNNY     87  44  22 VRB3      30.02F
SEATTLE WA     HVY RAIN  61  59  93 SW15      30.03R FOG
$$

*** WEATHER ACROSS MANITOBA...SASKATCHEWAN AND ONTARIO ***
                ***ONTARIO***

CITY           SKY/WX    TMP DP  RH WIND       PRES   REMARKS
GERALDTON      PTSUNNY   64  46  52 NW8       30.18F
THUNDER BAY    PTSUNNY   72  50  46 NW10      30.21F
SIOUX LOOKOUT  MOSUNNY   68  46  45 N7G21     30.27S
TORONTO        PTSUNNY   70  57  64 NW20G25   29.96S
BIG TROUT LK   SUNNY     73  52  46 W16G22    30.07F
PICKLE LAKE    MOSUNNY   72  45  37 NW8G18    30.19F
DRYDEN         SUNNY     68  46  45 N7        30.28F
KENORA         PTSUNNY   68  45  42 NW9       30.30F
$$
                *** MANITOBA***

CITY           SKY/WX    TMP DP  RH WIND       PRES   REMARKS
BRANDON        MOSUNNY   73  52  46 E10       30.31F
DAUPHIN        SUNNY     73  50  43 E12       30.29F
ISLAND LAKE    MOSUNNY   75  50  41 W9        30.22F
PILOT MOUND      N/A     68  52  56 E6          N/A
THE PAS        MOSUNNY   79  48  34 CALM      30.23F
THOMPSON       MOSUNNY   79  50  36 W8G22     30.17F
WINNIPEG       PTSUNNY   72  48  43 N3        30.30F
LYNN LAKE      MOSUNNY   81  45  28 W9G17     30.17F
CHURCHILL      MOSUNNY   61  48  63 NE6       30.08R
GILLAM         CLOUDY    77  54  44 W15       30.10F
$$
                ***SASKATCHEWAN***

CITY           SKY/WX    TMP DP  RH WIND       PRES   REMARKS
ESTEVAN        PTSUNNY   72  63  73 E13       30.23F
KINDERSLEY     CLOUDY    77  63  61 SE17      30.07F
LLOYDMINSTER   PTSUNNY   73  63  68 S16G26    30.04F
PRINCE ALBERT  PTSUNNY   77  59  53 SE10G17   30.19F
REGINA         PTSUNNY   79  55  44 SE20      30.20F
YORKTON        SUNNY     73  52  46 SE10G17   30.28F
N. BATTLEFORD  MOSUNNY   75  63  64 SE18G29   30.13F
LA RONGE       PTSUNNY   77  50  38 SE12      30.18F
SASKATOON      CLOUDY    79  59  50 SE17G25   30.18F
SWIFT CURRENT  PTSUNNY   77  57  50 SE18G24   30.12F
$$
NOTE: THESE ARE AUTOMATED STATIONS WITH LIMITED QUALITY CONTROL
      "FAIR" INDICATES FEW OR NO CLOUDS BELOW 12,000 FEET WITH NO
      SIGNIFICANT WEATHER AND/OR OBSTRUCTIONS TO VISIBILITY.
      SKY/WX - SKY CONDITION AND SIGNIFICANT WEATHER.
      TMP - AIR TEMPERATURE.    DP   - DEWPOINT TEMPERATURE.
      RH  - RELATIVE HUMIDITY.  PRES - PRESSURE.
      HX  - HEAT INDEX.         WCI  - WIND CHILL INDEX.
$


USA.gov is the U.S. government's official web portal to all federal, state and local government web resources and services.